www.pogodaiklimat.ru

Погода и климат >> Архив погоды >> Австралия >> Новый Южный Уэльс >> Даббо


ПОГОДА в Даббо

  • Прогноз погоды в Даббо
  • Монитор погоды в Даббо

АРХИВ ПОГОДЫ в Даббо

Время (UTC), дата Ветер
(напр.,м/с)
 
Видим.   Явления Облачность Т
(С)
Тd
(С)
f
(%)
Тe
(С)
Тes
(С)
Комфортность P
(гПа)
Po
(гПа)
Тmin
(С)
Tmax
(С)
R
(мм)
R24
(мм)
S
(см)
04 19.03 Ю 4 н/о 3/3 1500 м
[]
+29.8 +12.7 35 +31 +37 жарко 1010.3 977.8
05 19.03 ЮВ 5 н/о н/о +28.7 +11.7 35 +30 +30 жарко 1009.6 977.1
06 19.03 ЮВ 5 н/о н/о +28.6 +12.1 36 +30 +30 жарко 1009.4 976.9
07 19.03 Ю 4 н/о н/о +29.2 +12.2 35 +30 +30 жарко 1009.5 977.0
08 19.03 Ю 4 н/о н/о +27.7 +11.7 37 +29 +29 жарко 1009.9 977.4
09 19.03 Ю 3 н/о н/о +25.0 +12.2 45 +27 +27 жарко 1010.5 978.0
10 19.03 Ю 3 н/о н/о +23.8 +12.4 49 +26 +26 жарко 1011.4 978.9
11 19.03 Ю 4 н/о н/о +23.5 +12.8 51 +26 +26 жарко 1011.8 979.2
12 19.03 Ю 5 н/о н/о +23.4 +13.3 53 +27 +27 душно 1012.2 979.6
13 19.03 В 5 н/о н/о +22.0 +14.4 62 +25 +25 комфорт 1012.5 979.9 +31.2
14 19.03 В 4 н/о н/о +20.6 +14.9 70 +24 +24 комфорт 1012.4 979.8
15 19.03 В 4 н/о н/о +20.5 +15.1 71 +23 +23 комфорт 1012.3 979.7
16 19.03 В 5 н/о н/о +20.3 +15.3 73 +23 +23 комфорт 1012.1 979.5
17 19.03 В 5 н/о н/о +19.6 +15.3 76 +21 +21 комфорт 1011.8 979.2
18 19.03 В 5 н/о н/о +19.0 +15.5 80 +20 +20 1011.8 979.2
19 19.03 ЮВ 3 н/о н/о +17.6 +15.2 86 +18 +18 1012.3 979.7
20 19.03 ЮВ 4 н/о н/о +17.3 +15.5 89 +17 +17 1012.9 980.3
21 19.03 ЮВ 4 н/о н/о +19.0 +16.0 83 +20 +20 1013.5 980.9
22 19.03 В 5 н/о н/о +22.1 +16.4 70 +26 +26 душно 1013.9 981.3
23 19.03 В 4 н/о н/о +24.1 +15.3 58 +27 +27 жарко 1014.2 981.6
00 20.03 В 3 н/о н/о +26.1 +15.2 51 +29 +29 жарко 1014.2 981.6
01 20.03 ЮВ 2 н/о н/о +26.9 +14.3 46 +29 +29 жарко 1013.6 981.0 +17.2
02 20.03 Ю 5 н/о н/о +30.0 +13.7 37 +32 +32 жарко 1013.0 980.4
03 20.03 ЮВ 5 н/о н/о +30.4 +13.2 35 +32 +32 жарко 1012.1 979.5
04 20.03 ЮВ 5 н/о н/о +31.3 +13.1 33 +32 +32 жарко 1011.0 978.5
05 20.03 ЮВ 4 н/о н/о +31.8 +13.1 32 +33 +33 жарко 1010.4 977.9
06 20.03 ЮЗ 4 н/о н/о +32.6 +11.7 28 +33 +33 жарко 1010.0 977.5
07 20.03 ЮВ 4 н/о 1/0 2000 м
[]
+30.0 +11.5 32 +31 +31 жарко 1010.3 977.8
08 20.03 В 2 н/о н/о +29.4 +11.9 34 +30 +30 жарко 1010.4 977.9
09 20.03 ЮВ 2 н/о н/о +26.3 +12.7 43 +28 +28 жарко 1010.8 978.3
10 20.03 ЮВ 2 н/о 6/0 2000 м
[]
+25.2 +14.0 50 +28 +28 жарко 1011.5 979.0
11 20.03 В 3 н/о н/о +25.0 +13.5 49 +27 +27 жарко 1012.4 979.8
12 20.03 В 3 н/о н/о +23.0 +13.2 54 +26 +26 жарко 1012.8 980.2
13 20.03 В 5 н/о н/о +23.8 +13.6 53 +26 +26 жарко 1013.1 980.5 +33.3
14 20.03 В 4 н/о н/о +22.7 +14.0 58 +26 +26 жарко 1013.1 980.5
15 20.03 В 3 н/о н/о +21.5 +15.1 67 +25 +25 комфорт 1013.1 980.5
16 20.03 В 6 н/о н/о +21.2 +16.0 72 +25 +25 комфорт 1012.8 980.2
17 20.03 В 6 н/о н/о +20.6 +16.0 75 +24 +24 комфорт 1012.9 980.3
18 20.03 В 5 н/о н/о +19.9 +16.0 78 +22 +22 комфорт 1013.1 980.5
19 20.03 В 5 н/о н/о +19.4 +15.5 78 +21 +21 комфорт 1013.4 980.8
20 20.03 В 5 н/о н/о +19.2 +15.7 80 +21 +21 комфорт 1014.0 981.4
21 20.03 В 4 н/о н/о +20.4 +16.0 76 +23 +23 комфорт 1014.5 981.9
22 20.03 В 6 н/о н/о +22.7 +15.8 65 +27 +27 душно 1014.8 982.1
23 20.03 В 6 н/о н/о +25.4 +15.4 54 +28 +28 жарко 1015.5 982.8
00 21.03 В 5 н/о н/о +27.5 +15.2 47 +30 +30 жарко 1015.5 982.8
01 21.03 В 4 н/о н/о +29.5 +14.5 40 +32 +32 душно 1015.1 982.4 +18.7
02 21.03 В 4 н/о н/о +30.7 +13.0 34 +32 +32 жарко 1014.2 981.6
03 21.03 Ю 3 н/о н/о +31.7 +12.5 31 +32 +32 жарко 1013.3 980.7
04 21.03 ЮЗ 3 н/о 4/0 2000 м
[]
+32.3 +10.9 27 +32 +40 жарко 1012.4 979.8
05 21.03 В 3 н/о н/о +32.9 +9.7 24 +32 +32 жарко 1011.8 979.2
06 21.03 В 3 н/о н/о +32.9 +9.7 24 +32 +32 жарко 1011.3 978.8
07 21.03 СВ 2 н/о н/о +32.1 +9.0 24 +31 +31 жарко 1011.2 978.7
08 21.03 ЮВ 3 н/о н/о +30.5 +10.5 29 +30 +30 жарко 1011.8 979.2
09 21.03 В 2 н/о н/о +28.2 +10.4 33 +29 +29 жарко 1012.3 979.7
10 21.03 В 6 н/о 1/0
[]
+26.3 +13.8 46 +28 +28 жарко 1013.2 980.6
11 21.03 В 6 н/о н/о +24.9 +14.4 52 +27 +27 жарко 1014.0 981.4
12 21.03 В 7 н/о н/о +24.5 +15.4 57 +27 +27 жарко 1014.2 981.6
13 21.03 В 8 н/о н/о +24.1 +15.6 59 +27 +27 жарко 1014.2 981.6 +33.7
14 21.03 В 5 н/о н/о +22.9 +15.7 64 +27 +27 душно 1014.5 981.9
15 21.03 В 6 н/о н/о +22.2 +16.0 68 +26 +26 душно 1014.4 981.8
16 21.03 В 5 н/о н/о +21.4 +16.1 72 +25 +25 комфорт 1014.2 981.6
17 21.03 В 6 н/о н/о +20.9 +16.1 74 +24 +24 комфорт 1014.1 981.5
18 21.03 В 7 н/о н/о +20.5 +15.9 75 +23 +23 комфорт 1014.3 981.7
22 21.03 В 7 н/о н/о +22.9 +16.2 66 +27 +27 душно 1015.8 983.1
23 21.03 В 6 н/о н/о +24.9 +16.1 58 +28 +28 жарко 1015.8 983.1
01 22.03 С 3 н/о н/о +30.3 +14.8 39 +32 +32 жарко 1014.9 982.2 +19.7
02 22.03 С 4 н/о н/о +31.0 +12.8 33 +32 +32 жарко 1013.8 981.2
03 22.03 С 5 н/о н/о +33.4 +12.4 28 +34 +34 очень
жарко
1012.5 979.9
04 22.03 СЗ 5 н/о 1/0 2000 м
[]
+32.2 +12.4 30 +33 +39 жарко 1010.9 978.4
05 22.03 СВ 6 н/о н/о +28.2 +9.0 30 +28 +28 жарко 1010.7 978.2
06 22.03 Ю 13 н/о н/о +18.6 +17.1 91 +18 +18 1012.7 980.1
07 22.03 В 7 н/о ливневой дождь {туман} 10/10 1000 м
[]
+19.2 +16.6 85 +20 +20 1013.4 980.8
08 22.03 СВ 6 н/о н/о +19.7 +15.1 75 +21 +21 комфорт 1013.2 980.6
09 22.03 З 7 н/о н/о +19.8 +15.9 78 +22 +22 комфорт 1014.6 982.0
10 22.03 В 7 н/о {туман} 3/0
[]
+20.0 +14.6 71 +22 +22 комфорт 1013.2 980.6
11 22.03 В 6 н/о н/о +18.7 +15.2 80 +19 +19 1013.8 981.2
12 22.03 В 6 н/о н/о +18.5 +14.6 78 +19 +19 1013.9 981.3
13 22.03 ЮВ 3 н/о н/о +17.7 +14.6 82 +18 +18 1013.7 981.1 +34.7
14 22.03 ЮВ 4 н/о н/о +17.6 +14.9 84 +17 +17 1013.5 980.9
15 22.03 ЮВ 3 н/о н/о +17.0 +14.8 87 +17 +17 1013.4 980.8
16 22.03 ЮВ 4 н/о 8/0
[]
+16.9 +15.2 90 +16 +16 1013.1 980.5
17 22.03 ЮВ 4 н/о н/о +16.9 +15.1 89 +16 +16 1012.4 979.8
18 22.03 В 4 н/о н/о +16.5 +14.3 87 +16 +16 1012.6 980.0
19 22.03 ЮВ 3 н/о н/о +15.6 +14.3 92 +15 +15 1012.7 980.1
20 22.03 ЮВ 4 н/о н/о +15.9 +14.6 92 +15 +15 1013.0 980.4
21 22.03 ЮВ 3 н/о н/о +17.1 +15.1 88 +17 +17 1013.5 980.9
22 22.03 ЮВ 4 н/о н/о +19.9 +15.3 75 +22 +22 комфорт 1013.4 980.8
23 22.03 В 4 н/о н/о +23.7 +16.2 63 +27 +27 жарко 1013.5 980.9
00 23.03 СВ 4 н/о н/о +26.2 +15.6 52 +29 +29 жарко 1013.1 980.5
01 23.03 С 7 н/о н/о +30.8 +17.1 44 +35 +35 очень
душно
1012.2 979.6 +15.7
02 23.03 С 7 н/о н/о +31.2 +15.6 39 +34 +34 душно 1011.3 978.8
03 23.03 С 7 н/о н/о +33.4 +14.5 32 +35 +35 душно 1010.5 978.0
04 23.03 СЗ 8 н/о 3/0
[]
+34.1 +14.1 30 +35 +37 очень
жарко
1009.5 977.0
05 23.03 СЗ 7 н/о н/о +35.7 +14.4 28 +37 +37 душно 1008.6 976.1
06 23.03 СЗ 6 н/о н/о +34.4 +12.7 27 +35 +35 очень
жарко
1007.9 975.5
07 23.03 СЗ 5 н/о 10/0
[]
+34.5 +11.6 25 +34 +35 очень
жарко
1007.9 975.5
08 23.03 З 3 н/о н/о +31.3 +11.7 30 +32 +32 жарко 1008.2 975.8
09 23.03 С 2 н/о н/о +28.1 +14.7 44 +31 +31 душно 1008.7 976.2
10 23.03 штиль 0 н/о 4/0
[]
+27.2 +14.9 47 +30 +30 душно 1009.4 976.9
11 23.03 Ю 3 н/о н/о +26.9 +16.2 52 +30 +30 душно 1010.0 977.5
12 23.03 Ю 4 н/о н/о +27.5 +14.2 44 +30 +30 жарко 1010.8 978.3
13 23.03 ЮВ 4 н/о ливневой дождь 10/0
[]
+25.2 +16.6 59 +29 +29 душно 1010.8 978.3 +36.4
14 23.03 Ю 3 н/о н/о +24.6 +17.1 63 +28 +28 душно 1011.0 978.5
15 23.03 ЮВ 2 н/о н/о +23.8 +18.2 71 +28 +28 душно 1011.0 978.5
16 23.03 В 5 н/о 8/0
[]
+23.9 +16.4 63 +27 +27 жарко 1010.4 977.9
17 23.03 В 4 н/о н/о +23.0 +16.8 68 +28 +28 душно 1010.1 977.6
18 23.03 В 4 н/о н/о +22.0 +17.6 76 +27 +27 душно 1009.8 977.3
19 23.03 Ю 2 н/о 3/0
[]
+21.0 +17.0 78 +25 +25 комфорт 1010.7 978.2
20 23.03 ЮВ 4 н/о н/о +20.4 +17.6 84 +24 +24 комфорт 1011.5 979.0
21 23.03 ЮВ 4 н/о н/о +21.7 +18.5 82 +26 +26 душно 1012.2 979.6
22 23.03 В 4 н/о н/о +25.1 +18.5 67 +30 +30 душно 1012.0 979.4
23 23.03 Ю 5 н/о н/о +26.4 +17.2 57 +30 +30 душно 1012.7 980.1
00 24.03 Ю 4 н/о н/о +28.6 +15.8 46 +32 +32 душно 1013.1 980.5
01 24.03 Ю 5 н/о 1/0
[]
+29.8 +12.7 35 +31 +39 жарко 1012.6 980.0 +20.3
02 24.03 ЮВ 4 н/о н/о +30.1 +15.4 41 +33 +33 душно 1011.8 979.2
03 24.03 ЮВ 4 н/о н/о +30.1 +13.4 36 +32 +32 жарко 1010.9 978.4
04 24.03 ЮВ 5 н/о слаб. дождь 8/8 600 м
[]
+28.8 +15.0 43 +31 +33 жарко 1010.3 977.8
05 24.03 ЮВ 4 н/о н/о +29.8 +14.7 40 +32 +32 душно 1010.3 977.8
06 24.03 ЮВ 4 н/о н/о +29.2 +14.2 40 +31 +31 жарко 1010.4 977.9
07 24.03 Ю 5 н/о 9/0
[]
+28.0 +14.6 44 +30 +31 жарко 1010.3 977.8
08 24.03 ЮВ 5 н/о н/о +27.0 +15.4 49 +30 +30 душно 1010.7 978.2
09 24.03 ЮВ 4 н/о н/о +25.6 +15.3 53 +29 +29 душно 1011.0 978.5
10 24.03 ЮВ 3 н/о 6/0
[]
+24.2 +15.4 58 +27 +27 жарко 1011.5 979.0
11 24.03 ЮВ 3 н/о н/о +22.9 +16.0 65 +27 +27 душно 1011.7 979.1
12 24.03 ЮВ 4 н/о н/о +23.0 +16.3 66 +28 +28 душно 1011.7 979.1
13 24.03 Ю 4 н/о 10/0
[]
+23.1 +15.7 63 +27 +27 душно 1011.2 978.7 +32.1
14 24.03 Ю 3 н/о н/о +21.8 +15.9 69 +25 +25 комфорт 1010.9 978.4
15 24.03 В 3 н/о н/о +20.6 +16.6 78 +24 +24 комфорт 1010.5 978.0
16 24.03 Ю 1 н/о 9/0
[]
+20.7 +16.7 78 +26 +26 душно 1010.7 978.2
17 24.03 Ю 4 н/о н/о +19.5 +16.9 85 +22 +22 комфорт 1011.7 979.1
18 24.03 Ю 5 н/о н/о +19.3 +17.4 89 +21 +21 комфорт 1012.0 979.4
19 24.03 ЮВ 4 н/о дождь {туман} 10/10 1000 м
[]
+18.6 +17.8 95 +20 +20 1012.4 979.8
20 24.03 ЮВ 3 н/о н/о +18.5 +17.9 96 +20 +20 1013.0 980.4
21 24.03 В 3 н/о н/о +18.4 +17.9 97 +19 +19 1013.0 980.4
22 24.03 СВ 4 н/о слаб. дождь {туман} 10/10 1500 м
[]
+18.4 +17.6 95 +19 +19 1013.2 980.6
23 24.03 СВ 4 н/о н/о +18.6 +17.8 95 +19 +19 1012.9 980.3
00 25.03 С 5 н/о н/о +19.3 +18.5 95 +21 +21 комфорт 1013.1 980.5
01 25.03 С 3 н/о ливневой дождь {туман} 5/0
[]
+20.1 +18.1 88 +24 +33 комфорт 1012.9 980.3 +18.4
02 25.03 С 4 н/о н/о +21.2 +18.8 86 +26 +26 душно 1012.7 980.1
03 25.03 СЗ 5 н/о н/о +22.3 +19.3 83 +28 +28 душно 1012.6 980.0
04 25.03 СЗ 4 н/о {туман} 3/0
[]
+23.3 +19.7 80 +30 +37 очень
душно
1011.7 979.1
05 25.03 СЗ 6 н/о н/о +22.9 +18.7 77 +29 +29 очень
душно
1011.4 978.9
06 25.03 СЗ 5 н/о н/о +22.4 +19.2 82 +28 +28 душно 1011.7 979.1
07 25.03 С 8 н/о ливневой дождь {туман} 10/10 600 м
[]
+21.9 +19.3 85 +27 +27 душно 1012.1 979.5
08 25.03 З 4 н/о н/о +21.2 +19.8 92 +26 +26 душно 1012.2 979.6
09 25.03 СЗ 5 н/о н/о +21.4 +20.0 92 +27 +27 душно 1012.4 979.8
10 25.03 Ю 6 н/о сильн. ливневой дождь {туман} 10/10 600 м
[]
+18.0 +16.7 92 +18 +18 1013.5 980.9
11 25.03 Ю 4 н/о н/о +17.3 +16.3 94 +17 +17 1014.3 981.7
12 25.03 Ю 3 н/о н/о +16.9 +16.4 97 +17 +17 1015.0 982.3
13 25.03 СВ 3 н/о ливневой дождь {туман} 10/10 100 м
[]
+16.9 +16.4 97 +17 +17 1015.3 982.6 +23.9
14 25.03 штиль 0 н/о н/о +16.7 +16.2 97 +17 +17 1015.1 982.4
15 25.03 З 3 н/о н/о +16.5 +15.7 95 +16 +16 1015.4 982.7
16 25.03 ЮЗ 3 н/о {туман} 1/1 1500 м
[]
+15.8 +15.0 95 +15 +15 1015.6 982.9
17 25.03 Ю 3 н/о н/о +15.1 +14.1 94 +14 +14 1015.8 983.1
18 25.03 Ю 2 н/о н/о +14.6 +13.6 94 +14 +14 1015.8 983.1
19 25.03 ЮЗ 3 н/о {туман} н/о +14.4 +13.6 95 +13 +13 1016.4 983.7
20 25.03 ЮЗ 3 н/о н/о +13.7 +12.4 92 +13 +13 1017.1 984.4
21 25.03 Ю 4 н/о н/о +13.7 +12.3 91 +12 +12 1017.6 984.9
22 25.03 Ю 4 н/о {туман} н/о +15.0 +10.8 76 +14 +14 1018.4 985.6
23 25.03 Ю 5 н/о н/о +16.5 +8.2 58 +16 +16 1019.1 986.3
00 26.03 Ю 6 н/о н/о +18.7 +7.8 49 +19 +19 1019.1 986.3
01 26.03 ЮЗ 6 н/о н/о +20.2 +7.6 44 +21 +21 комфорт 1018.9 986.1 +13.5
02 26.03 ЮЗ 8 н/о н/о +20.3 +5.1 37 +21 +21 комфорт 1018.5 985.7
03 26.03 Ю 5 н/о н/о +20.4 +5.2 37 +21 +21 комфорт 1018.2 985.4
04 26.03 ЮЗ 7 н/о н/о +21.0 +5.0 35 +22 +22 комфорт 1017.7 985.0
05 26.03 Ю 7 н/о н/о +21.3 +4.0 32 +22 +22 комфорт 1017.6 984.9

 

Местоположение метеостанции Даббо (Новый Южный Уэльс, Австралия): широта -32.21 долгота 148.56 высота над уровнем моря 285 м.

В архиве по умолчанию представлена погода в Даббо за последнюю неделю. Архивные данные за месяц целиком и за предыдущие месяцы, начиная с января 2011 года, Вы можете получить, выбрав интересующий диапазон дат из раскрывающегося списка и нажав кнопку "Ввод!".


*Определитесь, кто Вы:
робот инопланетянин человек

Внимание! Время в таблицах - всемирное. Для получения местного времени необходимо прибавить поправку, которая равна 10 ч.

Смотрите также архив погоды в соседних городах и на ближайших метеорологических станциях:

Погода в Транги (Новый Южный Уэльс, Австралия) (63 км)
Погода в Парксе (Новый Южный Уэльс, Австралия) (107 км)
Погода в Маджи (Новый Южный Уэльс, Австралия) (107 км)
Погода в Кунабарабране (Новый Южный Уэльс, Австралия) (120 км)
Погода в Кунамбле (Новый Южный Уэльс, Австралия) (138 км)
Погода в Ориндже (Новый Южный Уэльс, Австралия) (141 км)
Погода в Форбсе (Новый Южный Уэльс, Австралия) (142 км)
Погода в Мерриве (Новый Южный Уэльс, Австралия) (152 км)
Погода в Кондоболине (Новый Южный Уэльс, Австралия) (158 км)
Погода в Налло Маунтин (Новый Южный Уэльс, Австралия) (167 км)

Пояснения к столбцам:

Ветер - указаны скорость ветра в м/с - средняя за 10 мин, порывы в срок и между сроками (в фигурных скобках) и направление, откуда дует ветер: С - северный, СВ - северо-восточный, В - восточный, ЮВ - юго-восточный, Ю - южный, ЮЗ - юго-западный, З - западный, СЗ - северо-западный.
Видимость - горизонтальная дальность видимости в метрах или километрах. При видимости от 1 до 10 км при отсутствии осадков обычно наблюдается дымка, при ухудшении видимости до 1 км и менее - туман. В сухую погоду видимость может ухудшаться дымом, пылью или мглою.
Явления - указаны атмосферные явления, наблюдавшиеся в срок или в последний час перед сроком; фигурными скобками обозначены явления, наблюдавшиеся между сроками (за 1-3 часа до срока); квадратными скобками обозначены град или гололедные отложения с указанием их диаметра в мм.
Облачность - указаны через наклонную черту общая и нижняя облачность в баллах и высота нижней границы облаков в метрах; квадратными скобками обозначены формы облаков: Ci - перистые, Cs - перисто-слоистые, Cc - перисто-кучевые, Ac - высококучевые, As - высокослоистые, Sc - слоисто-кучевые, Ns - слоисто-дождевые, Cu - кучевые, Cb - кучево-дождевые. Подробнее классификацию облаков см. в Атласе облаков (PDF).
T - Температура воздуха - температура, измеренная на высоте 2 м над землей.
Td - Температура точки росы - температура, при понижении до которой содержащийся в воздухе водяной пар достигнет насыщения.
f - Относительная влажность воздуха - влажноcть воздуха, измеренная на высоте 2 м над землей.
Te - Эффективная температура - температура, которую ощущает одетый по сезону человек в тени. Характеристика душности погоды. При расчете учитывается влияние влажности воздуха и скорости ветра на теплоощущения человека.
Tes - Эффективная температура на солнце - температура, которую ощущает человек, с поправкой на солнечный нагрев. Характеристика знойности погоды. Зависит от высоты солнца над горизонтом, облачности и скорости ветра. Ночью, в пасмурную погоду, а также при ветре 12 м/с и более поправка равна нулю.
P - Атмосферное давление - приведенное к уровню моря атмосферное давление.
Po - Атмосферное давление - измеренное на уровне метеостанции атмосферное давление.
Tmin - Минимальная температура - минимум температуры воздуха на высоте 2 м над землей.
Tmax - Максимальная температура - максимум температуры воздуха на высоте 2 м над землей.
R - Количество осадков - Количество выпавших осадков за период времени, мм. При наведении курсора мыши на число - период времени, за который выпало указанное количество осадков.
R24 - Количество осадков - Количество выпавших осадков за 24 часа, мм.
S - Снежный покров - Высота снежного покрова, см. При наведении курсора мыши на число - состояние снежного покрова и степень покрытия местности в баллах.